Flag for Germany Weather past 2 weeks in Siegen, North Rhine-Westphalia, Germany

Now
34 °F

Fog.


Feels Like: 28 °F
Forecast: 27 / 56 °F
Wind: 7 mph from West

Location: Hessen

Current Time: Apr 28, 2015 at 9:08:18 AM

Latest Report: Apr 28, 2015 at 8:20 AM


Visibility: 0 mi

Pressure: 29.89 "Hg

Humidity: 100%

Dew point: 34 °F

Location of SiegenLocation

Historic Weather in Siegen — Graph

°F

Siegen temperature yesterday

Maximum temperature yesterday: 48 °F (at 7:50 AM)
Minimum temperature yesterday: 39 °F (at 6:50 PM)
Average temperature yesterday: 43 °F

Past Weeks' High & Low Weather Summary

 TemperatureHumidityPressure
High70 °F (Apr 15, 3:50 PM)100% (Apr 13, 8:50 AM)30.42 "Hg (Apr 13, 8:50 AM)
Low32 °F (Apr 28, 6:50 AM)30% (Apr 21, 1:20 PM)29.59 "Hg (Apr 27, 7:50 AM)
Average53 °F60%30.08 "Hg
* Reported Apr 13 7:50 AM — Apr 28 7:20 AM, Siegen, Weather by CustomWeather, © 2015

Note: Actual official high and low records may vary slightly from our data, if they occured in-between our weather recording intervals... More about our weather records

Advertising

Siegen weather history for previous 24 hours

 ConditionsComfort  
Time TempWeatherWind HumidityBarometerVisibility
7:20 AM
Tue, Apr 28
34 °FChilly.5 mph100%29.86 "Hg5 mi
6:50 AM32 °FFog.7 mph100%29.83 "Hg0 mi
9:50 PM
Mon, Apr 27
39 °FPartly cloudy.12 mph100%29.74 "HgN/A
9:20 PM39 °FBroken clouds.14 mph100%29.74 "Hg5 mi
8:50 PM39 °FLight rain. Broken clouds.14 mph100%29.71 "Hg4 mi
8:20 PM39 °FLight rain. Broken clouds.12 mph100%29.71 "Hg2 mi
7:50 PM39 °FLight rain. Fog.10 mph100%29.68 "Hg1 mi
7:20 PM39 °FLight rain. More clouds than sun.12 mph100%29.68 "Hg2 mi
6:50 PM39 °FLight rain. More clouds than sun.13 mph100%29.68 "Hg2 mi
6:20 PM41 °FLight rain. More clouds than sun.14 mph100%29.68 "Hg2 mi
5:50 PM41 °FLight rain. More clouds than sun.14 mph100%29.68 "Hg1 mi
5:20 PM41 °FLight rain. More clouds than sun.15 mph100%29.68 "Hg1 mi
4:50 PM41 °FFog.16 mph100%29.68 "Hg1 mi
4:20 PM41 °FLight rain. More clouds than sun.14 mph100%29.68 "Hg1 mi
3:50 PM43 °FLight rain. More clouds than sun.15 mph100%29.68 "Hg2 mi
3:20 PM43 °FRain. Fog.14 mph100%29.68 "Hg0 mi
2:50 PM43 °FRain. Fog.14 mph100%29.68 "Hg1 mi
2:20 PM45 °FRain. Fog.13 mph100%29.68 "Hg0 mi
1:50 PM45 °FRain. Fog.13 mph100%29.65 "Hg1 mi
1:20 PM46 °FRain. Fog.13 mph100%29.65 "Hg0 mi
12:50 PM46 °FLight rain. Partly sunny.13 mph100%29.65 "Hg4 mi
12:20 PM46 °FLight rain. Partly sunny.12 mph100%29.65 "HgN/A
11:50 AM46 °FPartly sunny.10 mph100%29.65 "HgN/A
11:20 AM48 °FBroken clouds.10 mph100%29.65 "HgN/A
10:50 AM48 °FPartly sunny.12 mph100%29.62 "HgN/A
10:20 AM46 °FPartly sunny.13 mph100%29.62 "HgN/A
9:50 AM46 °FDrizzle. Partly sunny.12 mph100%29.62 "Hg5 mi
9:20 AM46 °FFog.16 mph100%29.62 "Hg2 mi
Weather by CustomWeather, © 2015

See weather overviewHow to use our weather pages